Location: Mount Cross
(36.6390°N, 79.4878°W)
Time: 14:06:16
(UTC+00:00)

A-11 Canister half - All Passes

Search period start: 30 March 2023 00:00
Search period end: 09 April 2023 00:00
Orbit: 1526 x 1682 km, 47.3° (Epoch: 29 March)

Date Brightness Start Highest point End Pass type
(mag) Time Alt. Az. Time Alt. Az. Time Alt. Az.
30 Mar - 01:18:59 10° WNW 01:28:50 65° NNE 01:38:18 10° ESE visible
30 Mar - 03:24:31 10° WNW 03:33:46 51° SW 03:42:44 10° SSE visible
30 Mar - 05:36:38 10° WSW 05:37:03 10° WSW 05:37:28 10° WSW visible
30 Mar - 16:41:50 10° SE 16:45:07 12° ESE 16:48:24 10° E daylight
30 Mar - 18:38:55 10° SSW 18:48:39 54° SE 18:58:17 10° ENE daylight
30 Mar - 20:43:41 10° WSW 20:53:46 65° NNW 21:03:40 10° ENE daylight
30 Mar - 22:50:53 10° WNW 23:00:25 45° N 23:09:41 10° ENE daylight
31 Mar - 00:57:13 10° WNW 01:07:04 63° NNE 01:16:32 10° ESE visible
31 Mar - 03:02:44 10° WNW 03:12:06 54° SW 03:21:10 10° SSE visible
31 Mar - 05:12:51 10° WSW 05:15:26 11° WSW 05:18:00 10° SW visible
31 Mar - 16:21:28 10° SE 16:23:29 11° ESE 16:25:29 10° ESE daylight
31 Mar - 18:17:18 10° SSW 18:26:57 51° SE 18:36:31 10° ENE daylight
31 Mar - 20:21:52 10° WSW 20:32:00 67° NNW 20:41:56 10° ENE daylight
31 Mar - 22:29:02 10° WNW 22:38:36 45° N 22:47:55 10° ENE daylight
01 Apr - 00:35:28 10° WNW 00:45:18 61° NNE 00:54:47 10° ESE visible
01 Apr - 02:40:58 10° WNW 02:50:26 57° SW 02:59:34 10° SSE visible
01 Apr - 04:50:15 10° W 04:53:50 13° WSW 04:57:24 10° SW visible
01 Apr - 17:55:42 10° SSW 18:05:15 48° SE 18:14:45 10° ENE daylight
01 Apr - 20:00:05 10° WSW 20:10:13 69° NNW 20:20:13 10° ENE daylight
01 Apr - 22:07:12 10° WNW 22:16:47 45° N 22:26:08 10° ENE daylight
02 Apr - 00:13:41 10° WNW 00:23:32 60° NNE 00:33:01 10° E visible
02 Apr - 02:19:11 10° WNW 02:28:45 60° SW 02:37:59 10° SE visible
02 Apr - 04:27:52 10° W 04:32:13 14° WSW 04:36:31 10° SSW visible
02 Apr - 17:34:07 10° SSW 17:43:33 46° SE 17:52:57 10° ENE daylight
02 Apr - 19:38:17 10° WSW 19:48:27 71° NNW 19:58:28 10° ENE daylight
02 Apr - 21:45:21 10° WNW 21:54:58 46° N 22:04:21 10° ENE daylight
02 Apr - 23:51:54 10° WNW 00:01:46 58° NNE 00:11:15 10° E visible
03 Apr - 01:57:25 10° WNW 02:07:04 63° SW 02:16:22 10° SE visible
03 Apr - 04:05:38 10° W 04:10:36 15° WSW 04:15:31 10° SSW visible
03 Apr - 17:12:32 10° SSW 17:21:52 43° SE 17:31:10 10° ENE daylight
03 Apr - 19:16:30 10° WSW 19:26:41 74° NNW 19:36:45 10° ENE daylight
03 Apr - 21:23:30 10° WNW 21:33:09 46° N 21:42:34 10° ENE daylight
03 Apr - 23:30:08 10° WNW 23:39:59 57° NNE 23:49:28 10° E daylight
04 Apr - 01:35:39 10° WNW 01:45:23 66° SW 01:54:45 10° SE visible
04 Apr - 03:43:29 10° W 03:48:59 17° WSW 03:54:25 10° SSW visible
04 Apr - 16:50:59 10° SSW 17:00:11 41° SE 17:09:22 10° ENE daylight
04 Apr - 18:54:43 10° WSW 19:04:54 76° NNW 19:15:01 10° ENE daylight
04 Apr - 21:01:40 10° WNW 21:11:20 46° N 21:20:47 10° ENE daylight
04 Apr - 23:08:22 10° WNW 23:18:12 55° NNE 23:27:42 10° E daylight
05 Apr - 01:13:52 10° WNW 01:23:41 69° SW 01:33:08 10° SE visible
05 Apr - 03:21:24 10° W 03:27:22 18° WSW 03:33:14 10° SSW visible
05 Apr - 16:29:27 10° SSW 16:38:29 39° SE 16:47:33 10° ENE daylight
05 Apr - 18:32:57 10° WSW 18:43:09 79° NNW 18:53:17 10° ENE daylight
05 Apr - 20:39:49 10° W 20:49:30 47° N 20:59:01 10° ENE daylight
05 Apr - 22:46:35 10° WNW 22:56:24 54° NNE 23:05:55 10° E daylight
06 Apr - 00:52:06 10° WNW 01:01:59 73° SW 01:11:29 10° SE visible
06 Apr - 02:59:21 10° W 03:05:44 20° SW 03:12:01 10° SSW visible
06 Apr - 16:07:55 10° SSW 16:16:48 37° SE 16:25:44 10° ENE daylight
06 Apr - 18:11:12 10° WSW 18:21:23 81° NNW 18:31:33 10° ENE daylight
06 Apr - 20:17:58 10° W 20:27:41 47° N 20:37:14 10° ENE daylight
06 Apr - 22:24:47 10° WNW 22:34:37 53° NNE 22:44:07 10° E daylight
07 Apr - 00:30:21 10° WNW 00:40:17 76° SW 00:49:51 10° SE visible
07 Apr - 02:37:22 10° W 02:44:07 21° SW 02:50:44 10° S visible
07 Apr - 15:46:25 10° S 15:55:08 35° SE 16:03:53 10° ENE daylight
07 Apr - 17:49:26 10° WSW 17:59:38 84° NNW 18:09:49 10° ENE daylight
07 Apr - 19:56:08 10° W 20:05:52 48° N 20:15:28 10° ENE daylight
07 Apr - 22:02:59 10° WNW 22:12:49 52° NNE 22:22:20 10° E daylight
08 Apr - 00:08:36 10° WNW 00:18:34 79° SW 00:28:11 10° SE visible
08 Apr - 02:15:24 10° WNW 02:22:29 23° SW 02:29:26 10° S visible
08 Apr - 15:24:56 10° S 15:33:28 32° SE 15:42:02 10° ENE daylight
08 Apr - 17:27:41 10° SW 17:37:53 87° NNW 17:48:04 10° ENE daylight
08 Apr - 19:34:17 10° W 19:44:03 49° N 19:53:41 10° ENE daylight
08 Apr - 21:41:13 10° WNW 21:51:01 51° NNE 22:00:32 10° E daylight
